sat.trackr.live / text

‹ back to catalog

STARLINK-33935

NORAD 63791 · 2025-091S

PAYLOAD ACTIVE UNKNOWN

§ Identity

Operator
Country
US
Launch date
2025-05-02
Launch site
AFETR
Launch vehicle
Mass (kg)
RCS (m²)

Purposes: comms

External: N2YO · Heavens-Above · Gunter

§ Orbital elements

Epoch: 2026-05-23T22:01:57.575136Z

Period
94.27 min
Inclination
43.0006°
Eccentricity
0.0000868
Mean motion
15.27571796 rev/d
Perigee alt
482.5 km
Apogee alt
483.7 km
Semi-major
6,861.2 km
B*
1.9515e-4
RAAN
348.0049°
Arg perigee
277.9410°
Mean anomaly
82.1343°
Rev number
6,051

§ Raw data

STARLINK-339351 63791U 25091S   26143.91802749  .00005110  00000+0  19515-3 0  99992 63791  43.0006 348.0049 0000868 277.9410  82.1343 15.27571796 60514

JSON: /api/v1/satellites/63791 · /tle

For live sub-satellite position, see the globe view (requires WebGL).

§ Visibility from observer

Set your observer location to see the next 7 days of passes ≥ 10°. The values pass through the URL so the page stays shareable.

No JS? Fill the form by hand. The geolocation button needs JavaScript.